Back to catalog

NOAA 17 DEB

AlivePO
NORAD 48742·DEBRIS·🇺🇸 United States

Launched Jun 24, 2002 from Vandenberg Space Force Base

Loading…

Next Passes (next 24 hours)

TLE

FreshSource: Space-Track

Epoch: Sep 14, 2026, 05:39 UTC

1 48742U 02032CB  26257.23569497  .00005178  00000-0  11409-2 0  9997
2 48742  98.7795 257.5259 0016001  37.7421 322.4896 14.57791754287000

Track NOAA 17 DEB in real time with AllMySat

Download on the App Store